Location: Big Meadows
(38.5260°N, 78.4400°W)
Time: 16:39:36
(UTC-04:00)

Amateur Radio Satellites - All Passes

Search period start: 25 October 2014 16:09
Search period end: 26 October 2014 16:09
Location: Big Meadows, 38.5260°N, 78.4400°W

Satellite Date Start Highest point End Downlink Frequencies (MHz)
Time Altitude Azimuth
AO-27 25 Oct 16:13:14 16:15:24 13° 270° (W) 16:17:35 436.795 MHz FM
AO-7 25 Oct 16:16:24 16:24:35 69° 69° (ENE) 16:32:48 29.400 - 29.500 MHz
Uosat F 25 Oct 16:32:20 16:37:14 56° 72° (ENE) 16:42:09 435.120 FM
JAS-2 25 Oct 17:07:00 17:12:16 33° 65° (ENE) 17:18:09 435.800 - 435.900 CW/SSB, 435.910 FM
Hamsat 25 Oct 17:16:05 17:18:49 17° 67° (ENE) 17:21:33 145.90 MHz
ISS 25 Oct 17:16:05 17:16:40 10° 11° (N) 17:17:15 145.800 FM
Saudisat 1A 25 Oct 17:19:00 17:23:20 55° 243° (WSW) 17:27:38 436.775 MHz
AO-7 25 Oct 18:11:36 18:17:55 24° 266° (W) 18:24:18 29.400 - 29.500 MHz
Uosat F 25 Oct 18:13:26 18:16:20 15° 268° (W) 18:19:15 435.120 FM
OPAL 25 Oct 18:18:06 18:22:57 53° 102° (ESE) 18:27:46 ?
Hamsat 25 Oct 18:50:34 18:54:28 37° 262° (W) 18:58:22 145.90 MHz
ISS 25 Oct 18:51:13 18:54:13 30° 30° (NNE) 18:57:12 145.800 FM
JAS-2 25 Oct 18:51:49 18:57:12 37° 265° (W) 19:03:16 435.800 - 435.900 CW/SSB, 435.910 FM
KITSAT 1 25 Oct 18:57:05 18:59:36 12° 24° (NNE) 19:02:06 435.175 FM
SO-67 25 Oct 19:28:58 19:32:23 72° 77° (ENE) 19:35:49 435.3500 MHz FM
OPAL 25 Oct 19:58:11 20:01:24 18° 298° (WNW) 20:04:36 ?
HO-68 25 Oct 19:58:24 20:03:47 24° 59° (ENE) 20:09:10 435.675 MHz FM
STRAND 1 25 Oct 20:03:45 20:08:55 74° 103° (ESE) 20:14:03 ?
ISS 25 Oct 20:27:55 20:30:52 29° 227° (SW) 20:33:48 145.800 FM
KITSAT 1 25 Oct 20:50:14 20:57:43 39° 50° (NE) 21:05:08 435.175 FM
RS-15 25 Oct 21:03:59 21:12:29 27° 103° (ESE) 21:20:52 29.354 - 29.394 USB, Beacon 29.352 USB
Oscar 11 25 Oct 21:09:56 21:12:47 18° 67° (ENE) 21:15:38 145.825 FM, Beacon 2401.500 USB
SO-50 25 Oct 21:26:37 21:31:00 33° 51° (NE) 21:35:25 436.795 FM
HO-68 25 Oct 21:43:45 21:50:51 67° 257° (WSW) 21:58:01 435.675 MHz FM
STRAND 1 25 Oct 21:45:01 21:47:27 14° 299° (WNW) 21:49:52 ?
ZACube-1 25 Oct 22:00:46 22:04:39 28° 70° (ENE) 22:08:30 437.345 MHz
UKube-1 25 Oct 22:03:32 22:07:52 80° 76° (ENE) 22:12:15 145.840 MHz, 145.915 MHz
FUNcube-1 25 Oct 22:44:26 22:49:02 83° 77° (ENE) 22:53:34 145.950 - 145.970 MHz USB
Oscar 11 25 Oct 22:44:36 22:48:39 38° 262° (W) 22:52:42 145.825 FM, Beacon 2401.500 USB
UOSAT-12 25 Oct 22:45:30 22:49:04 21° 46° (NE) 22:52:34 437.025 FM, 437.400 FM
KITSAT 1 25 Oct 22:45:34 22:53:13 48° 249° (WSW) 23:00:50 435.175 FM
SO-50 25 Oct 23:07:17 23:11:29 29° 247° (WSW) 23:15:41 436.795 FM
RS-15 25 Oct 23:12:39 23:23:40 76° 303° (WNW) 23:34:38 29.354 - 29.394 USB, Beacon 29.352 USB
ZACube-1 25 Oct 23:37:07 23:40:58 26° 264° (W) 23:44:47 437.345 MHz
MaSat-1 26 Oct 00:12:55 00:17:01 61° 296° (WNW) 00:20:45 437.345 MHz
UOSAT-12 26 Oct 00:24:56 00:29:29 50° 244° (WSW) 00:33:56 437.025 FM, 437.400 FM
RS-15 26 Oct 01:29:41 01:38:11 25° 330° (NNW) 01:46:47 29.354 - 29.394 USB, Beacon 29.352 USB
Oscar 16 26 Oct 01:32:53 01:35:23 14° 91° (E) 01:37:52 437.025 USB, Beacon 2401.1428
Oscar 10/S400 26 Oct 01:43:30 02:44:11 20° 244° (WSW) 05:01:50 145.825 - 145.975 CW/USB, Beacon 145.810 USB
JAS-1B 26 Oct 02:12:20 02:18:43 38° 99° (E) 02:26:10 435.800 - 435.900 CW/SSB
Oscar 19 26 Oct 02:24:11 02:29:04 44° 99° (E) 02:33:56 437.125 CW, 437.150 USB
AO-27 26 Oct 02:45:17 02:49:46 28° 96° (E) 02:54:13 436.795 MHz FM
AO-Echo 26 Oct 02:55:23 03:00:32 48° 99° (E) 03:05:38 ?
Oscar 16 26 Oct 03:10:04 03:15:09 64° 286° (WNW) 03:20:11 437.025 USB, Beacon 2401.1428
Sapphire 26 Oct 03:12:22 03:16:44 26° 107° (ESE) 03:21:08 437.095 MHz 1200 baud AX-25 AFSK
Uribyol 2 26 Oct 03:31:47 03:37:02 85° 104° (ESE) 03:42:13 436.500 FM
PCSat 26 Oct 03:33:53 03:38:58 44° 111° (ESE) 03:44:06 145.825 MHz
ITAMSAT 1 26 Oct 03:38:08 03:43:24 89° 284° (WNW) 03:48:36 435.822 SSB
RS-15 26 Oct 03:49:57 03:56:19 16° 7° (N) 04:02:47 29.354 - 29.394 USB, Beacon 29.352 USB
OPAL 26 Oct 03:58:07 03:58:33 10° 57° (ENE) 03:58:59 ?
JAS-1B 26 Oct 04:03:02 04:09:16 40° 291° (WNW) 04:16:34 435.800 - 435.900 CW/SSB
Oscar 19 26 Oct 04:04:20 04:08:05 21° 295° (WNW) 04:11:50 437.125 CW, 437.150 USB
Gurwin Techsat 1B 26 Oct 04:05:18 04:10:39 87° 104° (ESE) 04:15:58 435.225 FM
TMSAT-1 26 Oct 04:15:42 04:21:03 81° 103° (ESE) 04:26:20 436.925 FM
AO-7 26 Oct 04:20:40 04:27:03 24° 94° (E) 04:33:23 29.400 - 29.500 MHz
AO-27 26 Oct 04:24:37 04:29:14 33° 292° (WNW) 04:33:51 436.795 MHz FM
AO-Echo 26 Oct 04:35:01 04:38:54 21° 295° (WNW) 04:42:47 ?
Uosat F 26 Oct 04:42:28 04:46:03 19° 94° (E) 04:49:36 435.120 FM
Sapphire 26 Oct 04:54:49 04:59:54 41° 304° (NW) 05:05:02 437.095 MHz 1200 baud AX-25 AFSK
Uribyol 2 26 Oct 05:13:54 05:15:44 12° 300° (WNW) 05:17:34 436.500 FM
PCSat 26 Oct 05:18:03 05:22:33 26° 309° (NW) 05:27:04 145.825 MHz
ITAMSAT 1 26 Oct 05:20:41 05:22:04 11° 301° (WNW) 05:23:27 435.822 SSB
OPAL 26 Oct 05:31:28 05:36:37 83° 73° (ENE) 05:41:44 ?
STRAND 1 26 Oct 05:43:40 05:44:56 11° 59° (ENE) 05:46:12 ?
Gurwin Techsat 1B 26 Oct 05:47:58 05:49:50 12° 300° (WNW) 05:51:42 435.225 FM
TMSAT-1 26 Oct 05:57:58 06:00:14 13° 299° (WNW) 06:02:29 436.925 FM
JAS-2 26 Oct 06:01:16 06:08:33 40° 96° (E) 06:15:41 435.800 - 435.900 CW/SSB, 435.910 FM
RS-15 26 Oct 06:03:34 06:13:31 35° 41° (NE) 06:23:45 29.354 - 29.394 USB, Beacon 29.352 USB
AO-7 26 Oct 06:12:08 06:20:24 70° 291° (WNW) 06:28:39 29.400 - 29.500 MHz
Uosat F 26 Oct 06:20:13 06:25:01 45° 289° (WNW) 06:29:47 435.120 FM
Hamsat 26 Oct 06:37:16 06:41:14 39° 98° (E) 06:45:12 145.90 MHz
OPAL 26 Oct 07:15:14 07:16:01 10° 268° (W) 07:16:47 ?
STRAND 1 26 Oct 07:18:11 07:23:19 90° 260° (W) 07:28:30 ?
PANSAT 26 Oct 07:21:16 07:23:15 14° 168° (SSE) 07:25:13 not established
Saudisat 1A 26 Oct 07:23:46 07:28:01 53° 117° (ESE) 07:32:18 436.775 MHz
JAS-2 26 Oct 07:46:13 07:53:27 44° 292° (WNW) 08:00:39 435.800 - 435.900 CW/SSB, 435.910 FM
AO-7 26 Oct 08:07:30 08:11:42 15° 311° (NW) 08:15:54 29.400 - 29.500 MHz
Hamsat 26 Oct 08:14:15 08:16:51 16° 293° (WNW) 08:19:26 145.90 MHz
RS-15 26 Oct 08:15:43 08:26:53 75° 244° (WSW) 08:38:33 29.354 - 29.394 USB, Beacon 29.352 USB
SO-67 26 Oct 08:26:20 08:29:47 75° 283° (WNW) 08:33:13 435.3500 MHz FM
PANSAT 26 Oct 09:00:05 09:02:45 18° 181° (S) 09:05:25 not established
Saudisat 1A 26 Oct 09:04:52 09:07:53 18° 315° (NW) 09:10:54 436.775 MHz
HO-68 26 Oct 09:13:48 09:19:37 26° 95° (E) 09:25:23 435.675 MHz FM
UKube-1 26 Oct 09:54:34 09:57:06 15° 93° (E) 09:59:37 145.840 MHz, 145.915 MHz
MaSat-1 26 Oct 10:00:26 10:02:41 29° 251° (WSW) 10:04:48 437.345 MHz
RS-15 26 Oct 10:31:50 10:37:20 15° 262° (W) 10:42:57 29.354 - 29.394 USB, Beacon 29.352 USB
Oscar 11 26 Oct 10:33:25 10:37:28 39° 98° (E) 10:41:30 145.825 FM, Beacon 2401.500 USB
FUNcube-1 26 Oct 10:36:24 10:39:07 17° 93° (E) 10:41:48 145.950 - 145.970 MHz USB
PANSAT 26 Oct 10:40:27 10:42:15 13° 193° (SSW) 10:44:02 not established
HO-68 26 Oct 11:00:38 11:07:37 57° 291° (WNW) 11:14:35 435.675 MHz FM
KITSAT 1 26 Oct 11:17:46 11:24:30 30° 106° (ESE) 11:31:13 435.175 FM
ZACube-1 26 Oct 11:27:06 11:31:20 68° 101° (ESE) 11:35:28 437.345 MHz
UKube-1 26 Oct 11:29:19 11:33:29 44° 288° (WNW) 11:37:36 145.840 MHz, 145.915 MHz
ISS 26 Oct 11:32:59 11:35:20 18° 130° (SE) 11:37:42 145.800 FM
SO-50 26 Oct 11:42:42 11:44:40 13° 107° (ESE) 11:46:40 436.795 FM
Oscar 10/S400 26 Oct 11:55:37 12:16:04 26° 152° (SSE) 12:30:40 145.825 - 145.975 CW/USB, Beacon 145.810 USB
Sapphire 26 Oct 12:01:36 12:05:17 18° 47° (NE) 12:08:56 437.095 MHz 1200 baud AX-25 AFSK
Oscar 11 26 Oct 12:10:33 12:13:19 17° 294° (WNW) 12:16:05 145.825 FM, Beacon 2401.500 USB
FUNcube-1 26 Oct 12:11:45 12:15:38 35° 288° (WNW) 12:19:25 145.950 - 145.970 MHz USB
PCSat 26 Oct 12:23:21 12:27:59 28° 52° (NE) 12:32:35 145.825 MHz
Oscar 16 26 Oct 12:48:15 12:51:46 19° 64° (ENE) 12:55:18 437.025 USB, Beacon 2401.1428
JAS-1B 26 Oct 12:59:09 13:03:31 22° 64° (ENE) 13:07:46 435.800 - 435.900 CW/SSB
ISS 26 Oct 13:08:36 13:11:47 43° 326° (NW) 13:15:00 145.800 FM
KITSAT 1 26 Oct 13:11:28 13:19:24 58° 304° (NW) 13:27:22 435.175 FM
Uribyol 2 26 Oct 13:12:07 13:14:36 14° 61° (ENE) 13:17:06 436.500 FM
ITAMSAT 1 26 Oct 13:18:16 13:21:02 15° 62° (ENE) 13:23:49 435.822 SSB
SO-50 26 Oct 13:20:11 13:24:37 62° 304° (WNW) 13:29:12 436.795 FM
Oscar 19 26 Oct 13:39:34 13:44:36 56° 73° (ENE) 13:49:38 437.125 CW, 437.150 USB
Sapphire 26 Oct 13:43:50 13:49:15 71° 245° (WSW) 13:54:37 437.095 MHz 1200 baud AX-25 AFSK
Gurwin Techsat 1B 26 Oct 13:48:07 13:50:58 15° 62° (ENE) 13:53:49 435.225 FM
TMSAT-1 26 Oct 13:58:37 14:01:07 14° 61° (ENE) 14:03:36 436.925 FM
AO-27 26 Oct 14:01:57 14:06:44 38° 69° (ENE) 14:11:32 436.795 MHz FM
PCSat 26 Oct 14:06:27 14:11:30 41° 249° (WSW) 14:16:31 145.825 MHz
AO-Echo 26 Oct 14:06:55 14:11:39 51° 72° (ENE) 14:16:33 ?
Oscar 16 26 Oct 14:25:42 14:30:42 51° 260° (W) 14:35:44 437.025 USB, Beacon 2401.1428
UOSAT-12 26 Oct 14:34:13 14:38:48 70° 119° (ESE) 14:43:30 437.025 FM, 437.400 FM
ISS 26 Oct 14:47:49 14:49:10 12° 345° (NNW) 14:50:32 145.800 FM
Uribyol 2 26 Oct 14:48:11 14:53:24 75° 257° (WSW) 14:58:39 436.500 FM
JAS-1B 26 Oct 14:48:15 14:53:57 44° 260° (W) 14:59:21 435.800 - 435.900 CW/SSB
ITAMSAT 1 26 Oct 14:54:44 14:59:54 69° 258° (WSW) 15:05:08 435.822 SSB
KITSAT 1 26 Oct 15:12:07 15:16:43 16° 328° (NNW) 15:21:20 435.175 FM
AO-7 26 Oct 15:18:20 15:25:15 31° 59° (ENE) 15:32:10 29.400 - 29.500 MHz
Oscar 19 26 Oct 15:21:11 15:24:15 16° 268° (W) 15:27:20 437.125 CW, 437.150 USB
Gurwin Techsat 1B 26 Oct 15:25:01 15:30:18 70° 258° (WSW) 15:35:37 435.225 FM
TMSAT-1 26 Oct 15:35:03 15:40:20 77° 257° (WSW) 15:45:40 436.925 FM
AO-27 26 Oct 15:42:07 15:46:18 24° 265° (W) 15:50:31 436.795 MHz FM
AO-Echo 26 Oct 15:47:42 15:50:44 16° 269° (W) 15:53:50 ?
Saudisat 1A 26 Oct 15:51:54 15:55:48 29° 51° (NE) 15:59:40 436.775 MHz
Uosat F 26 Oct 15:54:23 15:58:21 24° 66° (ENE) 16:02:19 435.120 FM
